EW6911 Denia ES current weather conditions

sailwx.info

Wind from 309

Air temperature 13.9° C
Dewpoint 6.0° C

Last reported at 2020-Jan-17 19:02 UTC.
Time now 2020-Jan-17 20:02 UTC

Location: N 38°52' E 000°03'.
View on Google Maps.

See reports from other nearby stations

  
Tides and Currents Weather Stations Pressure Air Temp Water Temp Dewpoint Dewpoint Depression Visibility Wind Speed Wind Dir Waves Ship Positions
date/time (UTC)wind fromknots sea level pressurealtimeterstation pressurevisibilityair tempwater tempwave heightnotes
2020-Jan-17 19:02 309 13.9
2020-Jan-17 18:57 327 13.9
2020-Jan-17 18:52 282 13.9
2020-Jan-17 18:47 282 13.9
2020-Jan-17 18:42 284 13.9
2020-Jan-17 18:37 284 13.9
2020-Jan-17 18:32 286 13.9
2020-Jan-17 18:27 289 13.9
2020-Jan-17 18:22 289 14.4
2020-Jan-17 18:17 289 14.4
2020-Jan-17 18:12 289 14.4
2020-Jan-17 18:07 289 14.4
2020-Jan-17 18:02 298 14.4
2020-Jan-17 17:57 298 14.4
2020-Jan-17 17:52 298 15.0
2020-Jan-17 17:47 298 15.0
2020-Jan-17 17:42 294 15.0
2020-Jan-17 17:37 294 15.0
2020-Jan-17 17:32 294 15.6
2020-Jan-17 17:27 298 15.6
2020-Jan-17 17:22 294 15.6
2020-Jan-17 17:17 288 15.6
2020-Jan-17 17:12 320 15.6
2020-Jan-17 17:07 254 15.6
2020-Jan-17 17:02 292 15.6
2020-Jan-17 16:57 355 16.1
2020-Jan-17 16:52 346 16.1
2020-Jan-17 16:47 347 16.1
2020-Jan-17 16:42 317 16.1
2020-Jan-17 16:37 342 16.1
2020-Jan-17 16:32 345 16.1
2020-Jan-17 16:27 044 16.1
2020-Jan-17 16:22 348 15.6
2020-Jan-17 16:17 355 16.1
2020-Jan-17 16:12 311 16.1
2020-Jan-17 16:07 288 16.1
2020-Jan-17 16:02 019 15.6
2020-Jan-17 15:57 294 15.6
2020-Jan-17 15:52 319 16.1
2020-Jan-17 15:47 005 16.1
2020-Jan-17 15:42 019 16.1
2020-Jan-17 15:37 336 16.1
2020-Jan-17 15:32 313 16.1
2020-Jan-17 15:27 312 16.1
2020-Jan-17 15:22 320 16.7
2020-Jan-17 15:17 329 16.7
2020-Jan-17 15:12 306 16.7
2020-Jan-17 15:07 329 16.7
2020-Jan-17 15:02 296 16.7
2020-Jan-17 14:57 327 16.7
2020-Jan-17 14:52 290 16.7
2020-Jan-17 14:47 238 16.7
2020-Jan-17 14:42 266 16.7
2020-Jan-17 14:37 073 16.7
2020-Jan-17 14:32 327 16.7
2020-Jan-17 14:27 345 16.7
2020-Jan-17 14:22 311 16.7
2020-Jan-17 14:17 293 16.7
2020-Jan-17 14:12 054 17.2
2020-Jan-17 14:07 117 17.2
2020-Jan-17 14:02 067 17.2
2020-Jan-17 13:57 111 17.2
2020-Jan-17 13:52 151 17.8
2020-Jan-17 13:47 250 17.8
2020-Jan-17 13:42 198 17.8
2020-Jan-17 13:37 036 18.3
2020-Jan-17 13:32 118 18.3
2020-Jan-17 13:27 128 18.3
2020-Jan-17 13:22 061 18.9
2020-Jan-17 13:17 341 18.9
2020-Jan-17 13:12 300 18.9
2020-Jan-17 13:07 261 18.9
2020-Jan-17 13:02 301 18.9
2020-Jan-17 12:57 343 18.9
2020-Jan-17 12:52 068 19.4
2020-Jan-17 12:47 150 19.4
2020-Jan-17 12:42 254 19.4
2020-Jan-17 12:37 046 19.4
2020-Jan-17 12:32 332 19.4
2020-Jan-17 12:27 266 18.9
2020-Jan-17 12:22 311 18.9
2020-Jan-17 12:17 216 18.9
2020-Jan-17 12:12 300 18.9
2020-Jan-17 12:07 005 18.9
2020-Jan-17 12:02 146 18.9
2020-Jan-17 11:57 348 18.9
2020-Jan-17 11:52 260 18.9
2020-Jan-17 11:47 252 18.3
2020-Jan-17 11:42 094 18.3
2020-Jan-17 11:37 186 18.3
2020-Jan-17 11:32 049 18.3
2020-Jan-17 11:27 110 18.3
2020-Jan-17 11:22 336 18.3
2020-Jan-17 11:17 109 18.3
2020-Jan-17 11:12 205 18.3
2020-Jan-17 11:07 311 17.8
2020-Jan-17 11:02 347 17.8
2020-Jan-17 10:57 019 17.8
2020-Jan-17 10:52 054 17.8
2020-Jan-17 10:47 053 17.8
2020-Jan-17 10:42 17.8
2020-Jan-17 10:37 331 17.2
2020-Jan-17 10:32 342 17.2
2020-Jan-17 10:27 156 17.2
2020-Jan-17 10:22 134 17.2
2020-Jan-17 10:17 342 17.2
2020-Jan-17 10:12 309 17.2
2020-Jan-17 10:07 323 17.2
2020-Jan-17 10:02 232 17.2
2020-Jan-17 09:57 040 17.2
2020-Jan-17 09:52 332 16.7
2020-Jan-17 09:47 034 16.7
2020-Jan-17 09:42 328 16.7
2020-Jan-17 09:37 285 16.1
2020-Jan-17 09:32 332 16.1
2020-Jan-17 09:27 281 16.1
2020-Jan-17 09:22 296 15.6
2020-Jan-17 09:17 325 15.6
2020-Jan-17 09:12 227 15.6
2020-Jan-17 09:07 219 15.0
2020-Jan-17 09:02 264 15.0
2020-Jan-17 08:57 264 14.4
2020-Jan-17 08:52 264 14.4
2020-Jan-17 08:47 264 14.4
2020-Jan-17 08:42 264 13.9
2020-Jan-17 08:37 264 13.3
2020-Jan-17 08:32 264 13.3
2020-Jan-17 08:27 264 13.3
2020-Jan-17 08:22 264 13.3
2020-Jan-17 08:17 263 13.3
2020-Jan-17 08:12 263 13.3
2020-Jan-17 08:07 263 12.8
2020-Jan-17 08:02 263 12.8
2020-Jan-17 07:57 263 12.8
2020-Jan-17 07:52 257 12.2
2020-Jan-17 07:47 257 12.2
2020-Jan-17 07:42 257 12.2
2020-Jan-17 07:37 240 12.8
2020-Jan-17 07:32 265 12.8
2020-Jan-17 07:27 232 12.8
2020-Jan-17 07:22 232 12.8
2020-Jan-17 07:17 232 12.2
2020-Jan-17 07:12 232 12.2
2020-Jan-17 07:07 242 12.2
2020-Jan-17 07:02 136 12.8
2020-Jan-17 06:57 128 12.2
2020-Jan-17 06:52 135 12.2
2020-Jan-17 06:47 281 12.2
2020-Jan-17 06:42 281 11.7
2020-Jan-17 06:37 281 12.2
2020-Jan-17 06:32 281 12.2
2020-Jan-17 06:27 309 12.2
2020-Jan-17 06:22 225 12.2
2020-Jan-17 06:17 281 12.2
2020-Jan-17 06:12 274 12.2
2020-Jan-17 06:07 294 12.8
2020-Jan-17 06:02 293 12.8
2020-Jan-17 05:57 292 12.8
2020-Jan-17 05:52 290 12.8
2020-Jan-17 05:47 286 12.2
2020-Jan-17 05:42 194 12.2
2020-Jan-17 05:37 188 11.7
2020-Jan-17 05:32 188 11.1
2020-Jan-17 05:27 188 11.1
2020-Jan-17 05:22 205 11.1
2020-Jan-17 05:17 120 10.6
2020-Jan-17 05:12 196 10.0
2020-Jan-17 05:07 196 10.0
2020-Jan-17 05:02 196 9.4
2020-Jan-17 04:57 196 9.4
2020-Jan-17 04:52 194 9.4
2020-Jan-17 04:47 195 9.4
2020-Jan-17 04:42 224 9.4
2020-Jan-17 04:37 196 9.4
2020-Jan-17 04:32 326 9.4
2020-Jan-17 04:27 326 9.4
2020-Jan-17 04:22 326 9.4
2020-Jan-17 04:17 326 9.4
2020-Jan-17 04:12 326 8.9
2020-Jan-17 04:07 343 8.9
2020-Jan-17 04:02 343 8.9
2020-Jan-17 03:57 343 8.3
2020-Jan-17 03:52 261 7.8
2020-Jan-17 03:47 259 7.2
2020-Jan-17 03:42 259 7.2
2020-Jan-17 03:37 259 7.2
2020-Jan-17 03:32 263 7.8
2020-Jan-17 03:27 250 7.8
2020-Jan-17 03:22 246 7.8
2020-Jan-17 03:17 246 8.3
2020-Jan-17 03:12 237 8.3
2020-Jan-17 03:07 217 8.3
2020-Jan-17 03:02 211 7.8
2020-Jan-17 02:57 229 7.8
2020-Jan-17 02:52 231 7.8
2020-Jan-17 02:47 220 7.8
2020-Jan-17 02:42 233 7.8
2020-Jan-17 02:37 243 7.8
2020-Jan-17 02:32 243 7.8
2020-Jan-17 02:27 244 7.8
2020-Jan-17 02:22 244 7.8
2020-Jan-17 02:17 244 7.8
2020-Jan-17 02:12 244 7.8
2020-Jan-17 02:07 244 7.8
2020-Jan-17 02:02 244 8.3
2020-Jan-17 01:57 244 8.3
2020-Jan-17 01:52 244 8.3
2020-Jan-17 01:47 244 7.8
2020-Jan-17 01:42 244 7.8
2020-Jan-17 01:37 244 8.3
2020-Jan-17 01:32 244 8.3
2020-Jan-17 01:27 245 8.3
2020-Jan-17 01:22 245 8.3
2020-Jan-17 01:17 246 8.3
2020-Jan-17 01:12 246 8.3
2020-Jan-17 01:07 246 8.9
2020-Jan-17 01:02 246 8.9
2020-Jan-17 00:57 246 8.9
2020-Jan-17 00:52 246 8.9
2020-Jan-17 00:47 245 8.9
2020-Jan-17 00:42 246 9.4
2020-Jan-17 00:37 246 9.4
2020-Jan-17 00:32 246 9.4
2020-Jan-17 00:27 246 9.4
2020-Jan-17 00:22 246 9.4
2020-Jan-17 00:17 246 9.4
2020-Jan-17 00:12 246 10.0
2020-Jan-17 00:07 246 10.0
2020-Jan-17 00:02 245 10.0
2020-Jan-16 23:57 246 10.0
2020-Jan-16 23:52 245 10.0
2020-Jan-16 23:47 246 10.0
2020-Jan-16 23:42 245 10.0
2020-Jan-16 23:37 248 10.6
2020-Jan-16 23:32 285 10.6
2020-Jan-16 23:27 266 10.6
2020-Jan-16 23:22 262 11.1
2020-Jan-16 23:17 261 11.1
2020-Jan-16 23:12 279 11.1
2020-Jan-16 23:07 248 11.1
2020-Jan-16 23:02 243 11.7
2020-Jan-16 22:57 242 11.7
2020-Jan-16 22:52 239 11.7
2020-Jan-16 22:47 243 11.7
2020-Jan-16 22:42 258 11.7
2020-Jan-16 22:37 248 11.7
2020-Jan-16 22:32 208 11.1
2020-Jan-16 22:27 250 11.1
2020-Jan-16 22:22 244 11.1
2020-Jan-16 22:17 236 11.1
2020-Jan-16 22:12 238 11.7
2020-Jan-16 22:07 251 11.7
2020-Jan-16 21:57 242 11.7
2020-Jan-16 21:52 220 11.7
2020-Jan-16 21:47 225 11.7
2020-Jan-16 21:42 217 11.7
2020-Jan-16 21:37 219 11.7
2020-Jan-16 21:32 207 11.7
2020-Jan-16 21:27 221 11.7
2020-Jan-16 21:22 220 11.7
2020-Jan-16 21:17 227 11.7
2020-Jan-16 21:12 216 11.7
2020-Jan-16 21:07 246 11.7
2020-Jan-16 21:02 210 11.7
2020-Jan-16 20:57 223 11.7
2020-Jan-16 20:52 246 11.7
2020-Jan-16 20:47 237 12.2
2020-Jan-16 20:42 273 12.2
2020-Jan-16 20:37 260 12.2
2020-Jan-16 20:32 259 12.2
2020-Jan-16 20:27 238 12.2
2020-Jan-16 20:22 225 12.2
2020-Jan-16 20:17 233 12.2
2020-Jan-16 20:12 219 12.2
2020-Jan-16 20:07 236 12.2
2020-Jan-16 20:02 215 12.2
2020-Jan-16 19:57 219 12.2
2020-Jan-16 19:52 215 12.2
2020-Jan-16 19:47 220 12.2
2020-Jan-16 19:42 227 12.2
2020-Jan-16 19:37 208 12.8
2020-Jan-16 19:32 205 12.8
2020-Jan-16 19:27 205 12.2
2020-Jan-16 19:22 208 12.2
2020-Jan-16 19:17 211 12.2
2020-Jan-16 19:12 191 12.2
2020-Jan-16 19:07 184 12.2
2020-Jan-16 19:02 194 12.2
2020-Jan-16 18:57 196 12.8
2020-Jan-16 18:52 191 12.8
2020-Jan-16 18:47 242 12.8
2020-Jan-16 18:42 209 12.8
2020-Jan-16 18:37 187 12.8
2020-Jan-16 18:32 187 12.8
2020-Jan-16 18:27 194 12.8
2020-Jan-16 18:22 205 12.8
2020-Jan-16 18:17 209 12.8
2020-Jan-16 18:12 197 12.8
2020-Jan-16 18:07 186 12.8
2020-Jan-16 18:02 204 12.8
2020-Jan-16 17:57 219 12.8
2020-Jan-16 17:52 182 12.8
2020-Jan-16 17:47 192 12.8
2020-Jan-16 17:42 209 12.8
2020-Jan-16 17:37 218 12.8
2020-Jan-16 17:32 223 13.3
2020-Jan-16 17:27 180 13.3
2020-Jan-16 17:22 197 13.3
2020-Jan-16 17:17 223 13.3
2020-Jan-16 17:12 225 13.9
2020-Jan-16 17:07 195 13.9
2020-Jan-16 17:02 204 14.4
2020-Jan-16 16:57 034 14.4
2020-Jan-16 16:52 044 14.4
2020-Jan-16 16:47 044 15.0
2020-Jan-16 16:42 046 15.0
2020-Jan-16 16:37 046 15.0
2020-Jan-16 16:32 046 15.0
2020-Jan-16 16:27 046 15.0
2020-Jan-16 16:22 046 15.0
2020-Jan-16 16:17 046 15.0
2020-Jan-16 16:12 046 14.4
2020-Jan-16 16:07 046 14.4
2020-Jan-16 16:02 046 14.4
2020-Jan-16 15:57 046 14.4
2020-Jan-16 15:52 046 14.4
2020-Jan-16 15:47 047 14.4
2020-Jan-16 15:42 061 14.4
2020-Jan-16 15:37 051 14.4
2020-Jan-16 15:32 059 14.4
2020-Jan-16 15:27 057 14.4
2020-Jan-16 15:22 041 14.4
2020-Jan-16 15:17 057 14.4
2020-Jan-16 15:12 049 14.4
2020-Jan-16 15:07 061 14.4
2020-Jan-16 15:02 070 14.4
2020-Jan-16 14:57 057 14.4
2020-Jan-16 14:52 063 14.4
2020-Jan-16 14:47 057 14.4
2020-Jan-16 14:42 071 14.4
2020-Jan-16 14:37 059 14.4
2020-Jan-16 14:32 049 14.4
2020-Jan-16 14:27 056 14.4
2020-Jan-16 14:22 047 14.4
2020-Jan-16 14:17 057 14.4
2020-Jan-16 14:12 063 14.4
2020-Jan-16 14:07 062 14.4
2020-Jan-16 14:02 044 14.4
2020-Jan-16 13:57 056 14.4
2020-Jan-16 13:52 055 14.4
2020-Jan-16 13:47 046 14.4
2020-Jan-16 13:42 050 14.4
2020-Jan-16 13:37 059 14.4
2020-Jan-16 13:32 044 14.4
2020-Jan-16 13:27 050 14.4
2020-Jan-16 13:22 057 14.4
2020-Jan-16 13:17 052 14.4
2020-Jan-16 13:12 057 14.4
2020-Jan-16 13:07 061 14.4
2020-Jan-16 13:02 057 14.4
2020-Jan-16 12:57 049 14.4
2020-Jan-16 12:52 060 14.4
2020-Jan-16 12:47 065 14.4
2020-Jan-16 12:42 067 14.4
2020-Jan-16 12:37 067 14.4
2020-Jan-16 12:32 067 14.4
2020-Jan-16 12:27 067 14.4
2020-Jan-16 12:22 067 14.4
2020-Jan-16 12:17 063 14.4
2020-Jan-16 12:12 063 14.4
2020-Jan-16 12:07 063 14.4
2020-Jan-16 12:02 063 13.9
2020-Jan-16 11:57 063 13.9
2020-Jan-16 11:52 063 13.9
2020-Jan-16 11:47 063 13.9
2020-Jan-16 11:42 063 14.4
2020-Jan-16 11:37 066 14.4
2020-Jan-16 11:32 067 14.4
2020-Jan-16 11:27 053 14.4
2020-Jan-16 11:22 051 14.4
2020-Jan-16 11:17 051 14.4
2020-Jan-16 11:12 051 14.4
2020-Jan-16 11:07 051 15.0
2020-Jan-16 11:02 039 15.0
2020-Jan-16 10:57 035 14.4
2020-Jan-16 10:52 040 14.4
2020-Jan-16 10:47 040 14.4
2020-Jan-16 10:42 036 15.0
2020-Jan-16 10:37 034 15.0
2020-Jan-16 10:32 032 15.0
2020-Jan-16 10:27 015 15.6
2020-Jan-16 10:22 273 15.6
2020-Jan-16 10:17 273 16.1
2020-Jan-16 10:12 271 16.1
2020-Jan-16 10:07 269 16.1
2020-Jan-16 10:02 269 16.1
2020-Jan-16 09:57 269 16.1
2020-Jan-16 09:52 269 16.1
2020-Jan-16 09:47 270 15.6
2020-Jan-16 09:42 270 15.6
2020-Jan-16 09:37 270 15.0
2020-Jan-16 09:32 270 14.4
2020-Jan-16 09:27 270 13.9
2020-Jan-16 09:22 270 13.3
2020-Jan-16 09:17 270 13.3
2020-Jan-16 09:12 270 12.8
2020-Jan-16 09:07 270 12.2
2020-Jan-16 09:02 270 11.7
2020-Jan-16 08:57 270 11.1
2020-Jan-16 08:52 270 11.1
2020-Jan-16 08:47 270 10.6
2020-Jan-16 08:42 270 10.6
2020-Jan-16 08:37 270 10.0
2020-Jan-16 08:32 270 10.0
2020-Jan-16 08:27 271 10.0
2020-Jan-16 08:22 271 9.4
2020-Jan-16 08:17 271 8.9
2020-Jan-16 08:12 270 8.9
2020-Jan-16 08:07 271 8.3
2020-Jan-16 08:02 271 8.3
2020-Jan-16 07:57 271 8.3
2020-Jan-16 07:52 271 8.3
2020-Jan-16 07:47 271 8.3
2020-Jan-16 07:42 271 8.3
2020-Jan-16 07:37 271 8.3
2020-Jan-16 07:32 271 8.3
2020-Jan-16 07:27 271 7.8
2020-Jan-16 07:22 271 7.8
2020-Jan-16 07:17 271 7.8
2020-Jan-16 07:12 271 8.3
2020-Jan-16 07:07 271 8.9
2020-Jan-16 07:02 271 9.4
2020-Jan-16 06:57 272 9.4
2020-Jan-16 06:52 272 9.4
2020-Jan-16 06:47 272 9.4
2020-Jan-16 06:42 273 10.0
2020-Jan-16 06:37 273 10.6
2020-Jan-16 06:32 273 10.6
2020-Jan-16 06:27 273 10.6
2020-Jan-16 06:22 273 10.6
2020-Jan-16 06:17 273 10.0
2020-Jan-16 06:12 273 10.0
2020-Jan-16 06:07 273 10.6
2020-Jan-16 06:02 273 10.6
2020-Jan-16 05:57 273 10.6
2020-Jan-16 05:52 273 10.6
2020-Jan-16 05:47 273 10.6
2020-Jan-16 05:42 273 11.1
2020-Jan-16 05:37 273 11.1
2020-Jan-16 05:32 273 11.1
2020-Jan-16 05:27 273 11.1
2020-Jan-16 05:22 273 11.1
2020-Jan-16 05:17 273 11.7
2020-Jan-16 05:12 273 11.7
2020-Jan-16 05:07 273 11.7
2020-Jan-16 05:02 273 11.7
2020-Jan-16 04:57 273 11.7
2020-Jan-16 04:52 273 11.7
2020-Jan-16 04:47 273 11.7
2020-Jan-16 04:42 273 11.7
2020-Jan-16 04:37 273 11.7
2020-Jan-16 04:32 273 11.7
2020-Jan-16 04:27 273 11.7
2020-Jan-16 04:22 273 11.7
2020-Jan-16 04:17 272 11.7
2020-Jan-16 04:11 271 11.7
2020-Jan-16 04:07 271 11.7
2020-Jan-16 04:02 271 11.7
2020-Jan-16 03:57 270 12.2
2020-Jan-16 03:52 274 12.2
2020-Jan-16 03:47 258 12.2
2020-Jan-16 03:42 276 12.2
2020-Jan-16 03:37 274 12.2
2020-Jan-16 03:32 276 12.2
2020-Jan-16 03:27 275 12.2
2020-Jan-16 03:22 275 12.2
2020-Jan-16 03:17 275 12.2
2020-Jan-16 03:12 275 12.2
2020-Jan-16 03:07 275 11.7
2020-Jan-16 03:02 275 11.7
2020-Jan-16 02:57 275 11.7
2020-Jan-16 02:52 275 11.7
2020-Jan-16 02:47 275 11.7
2020-Jan-16 02:42 275 11.7
2020-Jan-16 02:37 275 11.7
2020-Jan-16 02:32 275 11.7
2020-Jan-16 02:27 256 11.7
2020-Jan-16 02:22 256 11.7
2020-Jan-16 02:17 256 11.7
2020-Jan-16 02:12 256 11.7
2020-Jan-16 02:07 256 11.7
2020-Jan-16 02:02 256 11.7
2020-Jan-16 01:57 256 11.7
2020-Jan-16 01:52 256 11.7
2020-Jan-16 01:47 256 11.1
2020-Jan-16 01:42 256 11.1
2020-Jan-16 01:37 256 10.6
2020-Jan-16 01:32 256 10.6
2020-Jan-16 01:27 256 10.6
2020-Jan-16 01:22 256 10.6
2020-Jan-16 01:17 256 10.6
2020-Jan-16 01:12 256 10.0
2020-Jan-16 01:07 252 10.0
2020-Jan-16 01:02 252 10.0
2020-Jan-16 00:57 252 10.0
2020-Jan-16 00:52 252 10.0
2020-Jan-16 00:47 252 10.0
2020-Jan-16 00:42 252 9.4
2020-Jan-16 00:37 252 9.4
2020-Jan-16 00:32 251 9.4
2020-Jan-16 00:27 251 9.4
2020-Jan-16 00:22 251 9.4
2020-Jan-16 00:17 251 9.4
2020-Jan-16 00:12 251 9.4
2020-Jan-16 00:07 252 9.4
2020-Jan-16 00:02 252 9.4
2020-Jan-15 23:57 257 9.4
2020-Jan-15 23:52 256 9.4
2020-Jan-15 23:47 270 9.4
2020-Jan-15 23:42 259 9.4
2020-Jan-15 23:37 257 9.4
2020-Jan-15 23:32 239 9.4
2020-Jan-15 23:27 238 9.4
2020-Jan-15 23:22 237 9.4
2020-Jan-15 23:16 236 9.4
2020-Jan-15 23:12 234 9.4
2020-Jan-15 23:07 226 9.4
2020-Jan-15 23:02 220 10.0
2020-Jan-15 22:57 216 10.0
2020-Jan-15 22:52 236 10.0
2020-Jan-15 22:47 249 10.0
2020-Jan-15 22:42 259 10.0
2020-Jan-15 22:37 257 10.0
2020-Jan-15 22:32 257 10.0
2020-Jan-15 22:27 257 10.0
2020-Jan-15 22:22 257 10.0
2020-Jan-15 22:17 257 10.6
2020-Jan-15 22:12 257 10.6
2020-Jan-15 22:07 257 10.6
2020-Jan-15 22:02 257 10.6
2020-Jan-15 21:57 250 10.6
2020-Jan-15 21:52 249 10.6
2020-Jan-15 21:46 248 10.6
2020-Jan-15 21:42 247 11.1
2020-Jan-15 21:37 243 11.1
2020-Jan-15 21:32 246 11.1
2020-Jan-15 21:27 246 11.1
2020-Jan-15 21:22 253 11.1
2020-Jan-15 21:17 254 11.1
2020-Jan-15 21:12 233 10.6
2020-Jan-15 21:07 255 10.6
2020-Jan-15 21:02 240 11.1
2020-Jan-15 20:57 253 11.1
2020-Jan-15 20:52 248 11.1
2020-Jan-15 20:47 244 11.1
2020-Jan-15 20:42 258 11.1
2020-Jan-15 20:37 237 11.1
2020-Jan-15 20:32 240 11.1
2020-Jan-15 20:27 261 11.1
2020-Jan-15 20:22 259 11.1
2020-Jan-15 20:17 246 11.7
2020-Jan-15 20:12 246 11.7
2020-Jan-15 20:07 254 11.7
2020-Jan-15 20:02 243 11.7